Location: Leuk
(46.3174°N, 7.6341°E)
Time: 15:36:26
(UTC+00:00)

Cosmos 2074 Rocket - Pass Details

Date: 09 March 2021
Orbit: 966 x 987 km, 82.9° (Epoch: 14 April)

Event Time Altitude Azimuth Distance (km) Brightness Sun altitude
Rises 04:49:48 0° 347° (NNW) 3,671 6.9 -11.8°
Reaches altitude 10° 04:52:22 10° 344° (NNW) 2,719 6.2 -11.4°
Maximum altitude 04:58:24 56° 268° (W) 1,143 4.1 -10.4°
Drops below altitude 10° 05:04:24 10° 192° (SSW) 2,700 6.2 -9.3°
Sets 05:06:57 0° 188° (S) 3,644 6.9 -8.9°
